This is the latest recevied weather packets stored in our database for station/object K9VSK-9. If no packets are shown the sender has not sent any weather packets the latest 10 day(s).
| Time | Temp. | Humidity | Pressure | Rain* | Wind** | Luminosity | Snow |
|---|---|---|---|---|---|---|---|
| 1778250484 | 13.89° C | 75% | 1011.8 hPa | 0 mm | - | - | - |
| 1778250184 | 13.89° C | 74% | 1011.8 hPa | 0 mm | - | - | - |
| 1778249883 | 13.89° C | 75% | 1011.7 hPa | 0 mm | - | - | - |
| 1778249583 | 13.89° C | 75% | 1011.6 hPa | 0 mm | - | - | - |
| 1778249283 | 13.89° C | 74% | 1011.6 hPa | 0 mm | - | - | - |
| 1778248983 | 13.89° C | 74% | 1011.6 hPa | 0 mm | - | - | - |
| 1778248682 | 14.44° C | 73% | 1011.6 hPa | 0 mm | - | - | - |
| 1778248382 | 14.44° C | 73% | 1011.6 hPa | 0 mm | - | - | - |
| 1778248082 | 13.89° C | 75% | 1011.5 hPa | 0 mm | - | - | - |
| 1778247781 | 13.89° C | 77% | 1011.6 hPa | 0 mm | - | - | - |
| 1778247481 | 13.33° C | 77% | 1011.7 hPa | 0 mm | - | - | - |
| 1778247181 | 13.33° C | 77% | 1011.7 hPa | 0 mm | - | - | - |
| 1778246881 | 13.33° C | 78% | 1011.7 hPa | 0 mm | - | - | - |
| 1778246580 | 13.33° C | 76% | 1011.6 hPa | 0 mm | - | - | - |
| 1778246280 | 13.33° C | 79% | 1011.6 hPa | 0 mm | - | - | - |
| 1778245980 | 12.78° C | 80% | 1011.6 hPa | 0 mm | - | - | - |
| 1778245679 | 12.78° C | 82% | 1011.7 hPa | 0 mm | - | - | - |
| 1778245379 | 12.22° C | 82% | 1011.5 hPa | 0 mm | - | - | - |
| 1778245079 | 12.22° C | 83% | 1011.6 hPa | 0 mm | - | - | - |
| 1778244779 | 11.67° C | 83% | 1011.6 hPa | 0 mm | - | - | - |
| 1778244478 | 11.67° C | 85% | 1011.6 hPa | 0 mm | - | - | - |
| 1778244178 | 11.67° C | 85% | 1011.6 hPa | 0 mm | - | - | - |
| 1778243878 | 11.11° C | 86% | 1011.7 hPa | 0 mm | - | - | - |
| 1778243577 | 11.11° C | 88% | 1011.7 hPa | 0 mm | - | - | - |
| 1778243277 | 10.56° C | 88% | 1011.7 hPa | 0 mm | - | - | - |
* Rain latest hour (hover to see other rain measurements)
** Current wind speed in m/s (hover to see current wind gust speed)